Regional Weather Roundup
Issued by NWS

Home | Current Version | Previous Version | Graphics & Text | Print | Product List | Glossary Off
Versions: 1 2 3 4 5 6 7 8 9 10 11 12 13 14 15 16 17 18 19 20 21 22 23 24 25 26 27 28 29 30 31 32 33 34 35 36 37 38 39 40 41 42 43 44 45 46 47 48 49 50

463
ASUS43 KMKX 301511
RWRWI

WISCONSIN REGIONAL WEATHER ROUNDUP
NATIONAL WEATHER SERVICE MILWAUKEE/SULLIVAN WI
1000 AM CDT SAT APR 30 2016

NOTE: "FAIR" INDICATES FEW OR NO CLOUDS BELOW 12,000 FEET WITH NO
SIGNIFICANT WEATHER AND/OR OBSTRUCTIONS TO VISIBILITY.

WIZ001-002-006>008-014>016-023>028-301600-
NORTHWEST WISCONSIN

CITY           SKY/WX    TMP DP  RH WIND       PRES   REMARKS
SUPERIOR ARPT  SUNNY     44  35  71 NE17      30.26S
ASHLAND        CLOUDY    47  37  68 NE17      30.26R
HAYWARD        CLOUDY    50  30  46 E18       30.19S
SIREN          PTSUNNY   50  31  48 NE9G18    30.16F
CUMBERLAND     CLOUDY    46  32  57 E14       30.14S
RICE LAKE      CLOUDY    50  31  47 NE12G17   30.15F
CHETEK         CLOUDY    47  34  59 NE9       30.13F
LADYSMITH      CLOUDY    48  33  54 NE12      30.16S
EAU CLAIRE     CLOUDY    48  33  56 E14       30.10F
MENOMONIE      CLOUDY    49  33  55 NE9G16    30.11S
NEW RICHMOND   CLOUDY    49  31  50 E16       30.11S
OSCEOLA        MOSUNNY   51  32  49 NE15      30.15F
$$

WIZ003>005-009-010-017-018-301600-
NORTH CENTRAL WISCONSIN

CITY           SKY/WX    TMP DP  RH WIND       PRES   REMARKS
MANITOWISH WTR MOSUNNY   47  32  55 NE12      30.19S
ARBOR VITAE    PTSUNNY   52  33  48 E7        30.18F
WOODRUFF       PTSUNNY   52  33  48 E7        30.18F
RHINELANDER    CLOUDY    48  31  51 E9        30.18S
EAGLE RIVER    CLOUDY    49  29  45 NE8       30.18S
LAND O LAKES   CLOUDY    50  30  47 NE9       30.20F
PHILLIPS       CLOUDY    48  32  53 E14       30.16F
TOMAHAWK       CLOUDY    48  32  52 E6        30.16F
MEDFORD        CLOUDY    47  33  57 NE12G17   30.12F
MERRILL        CLOUDY    50  33  51 E13       30.15S
$$

WIZ029-030-035-036-043>047-301600-
CENTRAL WISCONSIN

CITY           SKY/WX    TMP DP  RH WIND       PRES   REMARKS
WAUSAU         CLOUDY    52  32  46 NE9G18    30.11F
MOSINEE        SUNNY     46  32  57 E14G21    30.13F
MARSHFIELD     CLOUDY    48  33  56 E15       30.10S
STEVENS POINT  CLOUDY    46  32  59 E12       30.13S
WAUPACA        CLOUDY    48  36  63 NE8       30.14R
WAUTOMA        NOT AVBL
WISC RAPIDS    CLOUDY    48  31  51 E14G22    30.11F
CAMP DOUGLAS   CLOUDY    46  41  81 E13       30.07S
$$

WIZ011>013-019>022-031-037>040-048>050-301600-
NORTHEAST WISCONSIN

CITY           SKY/WX    TMP DP  RH WIND       PRES   REMARKS
ANTIGO         CLOUDY    49  32  51 E12       30.15S
SHAWANO        PTSUNNY   50  36  58 NE10      30.16S
OCONTO         CLOUDY    47  36  63 NE8G16    30.17S
STURGEON BAY   CLOUDY    46  34  61 NE10      30.19F
GREEN BAY      PTSUNNY   48  40  73 NE12      30.16R
MANITOWOC      CLOUDY    49  38  65 MISG      30.15S
APPLETON       PTSUNNY   46  34  61 NE12G17   30.12R
CLINTONVILLE   PTSUNNY   48  34  57 E9        30.14S
OSHKOSH        PTSUNNY   48  38  68 E13       30.11S
$$

WIZ032>034-041-042-053>061-301600-
SOUTHWEST WISCONSIN

CITY           SKY/WX    TMP DP  RH WIND       PRES   REMARKS
LA CROSSE      CLOUDY    47  32  56 E9        30.05F
SPARTA         CLOUDY    46  35  65 E9        30.06F
VIROQUA        CLOUDY    44  33  65 E16       30.03S
BOSCOBEL       CLOUDY    49  36  61 E12G17    30.02S
PRAIRIE DU CHI CLOUDY    49  35  60 E9G16     29.99S
PLATTEVILLE    CLOUDY    47  43  86 E18G26    29.98S
$$

WIZ056-057-062-063-064-067-068-301600-
SOUTH CENTRAL WISCONSIN

CITY           SKY/WX    TMP DP  RH WIND       PRES   REMARKS
REEDSBURG      CLOUDY    45  35  66 E12       30.06S
BARABOO/DELLS  CLOUDY    46  35  64 E12       30.06F
LONE ROCK      CLOUDY    48  37  65 E15       30.04F
MINERAL POINT  LGT RAIN  46  41  81 E16       30.00S
MADISON        CLOUDY    47  38  71 E14       30.06F
MIDDLETON      CLOUDY    47  38  71 E12       30.05F
WATERTOWN      CLOUDY    47  41  80 E13G18    30.07S
MONROE         DRIZZLE   45  41  87 E10G18    30.00F
JANESVILLE     CLOUDY    48  43  81 E16       30.04R
$$

WIZ051-052-058>065-066-070>072-301600-
SOUTHEAST WISCONSIN

CITY           SKY/WX    TMP DP  RH WIND       PRES   REMARKS
MILWAUKEE      CLOUDY    45  39  79 E14       30.10R
WAUKESHA       CLOUDY    45  36  70 E5        30.10R
MILWAUKEE/TIMM CLOUDY    45  36  70 E8        30.11
RACINE         CLOUDY    45  38  76 E13       30.10R
BURLINGTON     CLOUDY    46  39  76 E13G20    30.07R
KENOSHA        CLOUDY    45  39  79 E15       30.07S
FOND DU LAC    CLOUDY    50  39  66 E12       30.11R
SHEBOYGAN      PTSUNNY   48  38  68 E10       30.13R
WEST BEND      PTSUNNY   46  36  66 E8        30.10S
JUNEAU         PTSUNNY   47  38  73 E10G17    30.10S
$$

LSZ147-162-301600-
LAKE SUPERIOR

STATION/POSITION TIME  TEMP    WIND        PRES    WAVE
                       AIR SEA DIR/SP/G            HT/PER
                 (UTC) (F)     (DEG/KT/KT) (MB)    (FT/S)
W MID LAKE BUOY  1450   38 37   40/ 12/ 14 1026.5R   2/ 4
DEVILS ISLAND    1500   39      60/ 19/ 22 1026.3R
SAXON HARBOR     1400   39      40/ 11/ 14 1023.7
$$

LMZ867-665-643>646-301600-
LAKE MICHIGAN

STATION/POSITION TIME  TEMP    WIND        PRES    WAVE
                       AIR SEA DIR/SP/G            HT/PER
                 (UTC) (F)     (DEG/KT/KT) (MB)    (FT/S)
CHAMBERS ISLAND  1400   40      20/ 13/ 15 1022.4F
N MID LAKE BUOY  1450   39 39   50/ 10/ 12 1022.4F   1/ 3
NORTHPORT PIER   1400   45      40/  7/ 10 1022.4S
ALGOMA LAKESHORE 1415           40/ 14/ 16   N/A
KEWAUNEE LAKESHO 1400   42      30/  9/ 11 1020.6F
SHEBOYGAN LAKESH 1500   42      40/  7/  8 1021.2R
PORT WASHINGTON  1400   44      80/ 10/ 14 1020.3F
S MID LAKE BUOY  1450   42 40   70/ 12/ 14 1018.9F   1/ 3
KENOSHA   LAKESH 1500   42      80/ 15/ 17 1018.3S
$$

TC  - TEMPERATURE IN CELSIUS
VSB - VISIBILITY IN STATUTE MILES
WCI - WIND CHILL INDEX
HX  - HEAT INDEX





USA.gov is the U.S. government's official web portal to all federal, state and local government web resources and services.